Weather History for KSMQ - January, 2013

Change the Weather History Date:

Tuesday, January 8, 2013

  Actual Average Record
Temperature  
Mean Temperature 34 °F -  
Max Temperature 48 °F 37 °F 64 °F (2008)
Min Temperature 19 °F 19 °F -4 °F (1942)
Degree Days  
Heating Degree Days 32    
Moisture  
Dew Point 24 °F    
Average Humidity 77    
Maximum Humidity 93    
Minimum Humidity 48    
Precipitation  
Precipitation 0.00 in - - ()
Sea Level Pressure  
Sea Level Pressure 30.38 in    
Wind  
Wind Speed 1 mph (West)    
Max Wind Speed 6 mph    
Max Gust Speed -    
Visibility 9 miles    
Events      
Averages and records for this station are not official NWS values.
T = Trace of Precipitation, MM = Missing Value Source: NWS Daily Summary

Daily Weather History Graph

Daily Weather History Graph

Search for Another Location

Airport or City:

Trip Planner

Search our weather history database for the weather conditions in past years. The results will help you decide how hot, cold, wet, or windy it might be!

Date:

Astronomy

Jan. 08, 2013 Rise Set
Actual Time 7:22 AM EST 4:49 PM EST
Civil Twilight 6:51 AM EST 5:19 PM EST
Nautical Twilight 6:17 AM EST 5:53 PM EST
Astronomical Twilight 5:44 AM EST 6:26 PM EST
Moon 3:52 AM EST (1/8) 1:49 PM EST (1/8)
Length of Visible Light 10h 27m
Length of Day
9h 26m
Waning Crescent, 14% of the Moon is Illuminated
Jan 8
Waning Crescent
Jan 11
New
Jan 18
First Quarter
Jan 26
Full
Feb 3
Last Quarter

Hourly Weather History & Observations

Time (EST) Temp. Windchill Dew Point Humidity Pressure Visibility Wind Dir Wind Speed Gust Speed Precip Events Conditions
12:53 AM 21.9 °F - 19.0 °F 89% 30.40 in 10.0 mi Calm Calm - N/A   Clear
1:53 AM 21.0 °F - 19.0 °F 92% 30.39 in 10.0 mi Calm Calm - N/A   Clear
2:53 AM 19.9 °F - 17.1 °F 89% 30.37 in 10.0 mi Calm Calm - N/A   Clear
3:53 AM 19.9 °F 14.9 °F 17.1 °F 89% 30.36 in 10.0 mi NNW 3.5 mph - N/A   Clear
4:53 AM 19.0 °F - 16.0 °F 88% 30.37 in 10.0 mi Calm Calm - N/A   Clear
5:53 AM 19.0 °F - 16.0 °F 88% 30.38 in 10.0 mi Calm Calm - N/A   Clear
6:53 AM 19.0 °F - 16.0 °F 88% 30.40 in 10.0 mi Calm Calm - N/A   Clear
7:53 AM 19.0 °F - 17.1 °F 92% 30.41 in 10.0 mi Calm Calm - N/A   Clear
8:53 AM 27.0 °F - 23.0 °F 85% 30.42 in 7.0 mi Calm Calm - N/A   Clear
9:53 AM 37.0 °F 32.4 °F 28.9 °F 73% 30.41 in 7.0 mi Variable 5.8 mph - N/A   Clear
10:53 AM 41.0 °F 37.1 °F 28.9 °F 62% 30.39 in 10.0 mi SW 5.8 mph - N/A   Clear
11:53 AM 44.1 °F 40.8 °F 30.0 °F 58% 30.36 in 10.0 mi Variable 5.8 mph - N/A   Clear
12:53 PM 46.9 °F - 30.9 °F 54% 30.35 in 10.0 mi Variable 4.6 mph - N/A   Clear
1:53 PM 48.9 °F - 30.0 °F 48% 30.34 in 10.0 mi Variable 5.8 mph - N/A   Clear
2:53 PM 48.0 °F - 28.9 °F 48% 30.35 in 10.0 mi Variable 3.5 mph - N/A   Clear
3:53 PM 46.9 °F - 28.9 °F 50% 30.35 in 10.0 mi Calm Calm - N/A   Clear
4:53 PM 43.0 °F - 28.9 °F 58% 30.35 in 10.0 mi Calm Calm - N/A   Clear
5:53 PM 36.0 °F - 28.0 °F 73% 30.37 in 10.0 mi Calm Calm - N/A   Clear
6:53 PM 33.1 °F - 26.1 °F 75% 30.38 in 10.0 mi Calm Calm - N/A   Clear
7:53 PM 28.9 °F - 25.0 °F 85% 30.39 in 10.0 mi Calm Calm - N/A   Clear
8:53 PM 28.9 °F - 25.0 °F 85% 30.38 in 9.0 mi Calm Calm - N/A   Clear
9:53 PM 28.0 °F - 25.0 °F 88% 30.39 in 9.0 mi Calm Calm - N/A   Clear
10:53 PM 26.1 °F - 24.1 °F 92% 30.40 in 7.0 mi Calm Calm - N/A   Clear
11:53 PM 24.8 °F - 23.0 °F 93% 30.39 in 7.0 mi Calm Calm - N/A   Clear